User: anonymous   Login
Location: Byszew
(52.1813°N, 19.2693°E)
Time: 21:53:04
(UTC+00:00)
Language:

Cosmos 1295 Rocket - Orbit

View from above orbital plane
View from above orbital plane
View from above satellite
View from above satellite

Ground track
Ground track

The orbit data is extracted from the following two-line orbital elements,

1 12682U 81077B   21129.42828439  .00000035  00000-0  20123-4 0  9997
2 12682  82.9204  32.3261 0033142 316.6743  43.1810 13.78607231998557
Epoch (UTC): 09 May 2021 10:16:43
Eccentricity: 0.0033142
inclination: 82.9204°
perigee height: 944 km
apogee height: 993 km
right ascension of ascending node: 32.3261°
argument of perigee: 316.6743°
revolutions per day: 13.78607231
mean anomaly at epoch: 43.1810°
orbit number at epoch: 99855

The dashed part of the orbit path shows where the satellite is in the earth's shadow,  

DLR